Find Starlink 35384

NORAD ID: 65884 Int'l Des: 2025-224 Owner: SPXS Country: US Constellation: starlink operational
LEOCIRCULAR

リアルタイム位置

3D地球を読み込み中...

Starlink 35384について

説明を読み込み中...

次回通過

Passes for default location (London). Set your location on the main map for personalized predictions.

高度履歴

Loading altitude history...

軌道要素

1 65884U 25224C 26105.53070919 .00013532 00000-0 46807-3 0 9996
2 65884 53.1602 200.3126 0001364 94.6896 265.4261 15.30207673 30463
Epoch: Apr 15, 2026 • Age: 17 hours

現在のステータス

高度 480.1 km
速度 7.63 km/s
衛星直下点 -16.70°S, 108.65°W
打ち上げ日 Oct 7, 2025
運用期間 0.5 years
タイプ internet

技術仕様

分類 Payload
質量 575.00 kg
乾燥質量 530.00 kg
総質量 575.00 kg
長さ 0.30 m
直径 4.10 m
スパン 29.00 m
形状 Box + pan
製造者 SPXS
バスタイプ Starlink V2MO
フェーズステータス In Orbit
所有者/国 SPXS/US

Most Searched